sat.trackr.live / text

‹ back to catalog

STARLINK-35422

NORAD 66068 · 2025-235L

PAYLOAD ACTIVE UNKNOWN

§ Identity

Operator
Country
US
Launch date
2025-10-19
Launch site
AFETR
Launch vehicle
Mass (kg)
RCS (m²)

Purposes: comms

External: N2YO · Heavens-Above · Gunter

§ Orbital elements

Epoch: 2026-05-24T23:38:43.922112Z

Period
94.10 min
Inclination
53.1573°
Eccentricity
0.0001209
Mean motion
15.30222259 rev/d
Perigee alt
474.3 km
Apogee alt
476.0 km
Semi-major
6,853.3 km
B*
7.8322e-4
RAAN
250.8117°
Arg perigee
54.3486°
Mean anomaly
305.7627°
Rev number
3,457

§ Raw data

STARLINK-354221 66068U 25235L   26144.98523058  .00022925  00000+0  78322-3 0  99942 66068  53.1573 250.8117 0001209  54.3486 305.7627 15.30222259 34578

JSON: /api/v1/satellites/66068 · /tle

For live sub-satellite position, see the globe view (requires WebGL).

§ Visibility from observer

Set your observer location to see the next 7 days of passes ≥ 10°. The values pass through the URL so the page stays shareable.

No JS? Fill the form by hand. The geolocation button needs JavaScript.